[[{"header":{"parameterUnit":"m.s-1","parameterCategory":1,"la1":30.2991,"la2":30.254,"lo1":-89.0895,"lo2":-89.0444,"dy":0.0017,"dx":0.0017,"nx":28,"ny":28,"refTime":"2024-06-26T03:00:00:Z","depth":0,"parameterNumber":2,"parameterNumberName":"U-component_of_WINDS"},"data":[0,0,0,0,0,0,0,0,0,0,0,0,0,0,0,0,0,0,0,0,0,0,0,0,0,0,0,0,0,0,0,0,0,0,0,0,0,0,0,0,0,0,0,0,0,0,0,0,0,0,0,0,0,0,0,0,0,0,1.6247,1.6249,0,1.6403,1.6405,1.6407,1.6406,1.6404,1.6402,1.64,1.6564,1.657,1.6577,0,0,0,0,0,0,0,0,0,0,0,0,0,1.5953,1.5959,1.6247,1.6249,1.6251,1.6403,1.6405,1.6407,1.6407,1.6404,1.6402,1.6399,1.6562,1.657,1.6577,0,0,0,0,0,0,0,0,0,0,0,0,0,1.6092,1.596,1.6247,1.6269,1.6272,1.6402,1.6405,1.6408,1.6407,1.6404,1.6401,1.6398,1.656,1.6569,1.6578,1.6698,0,0,1.6607,1.6611,0,0,0,0,0,0,0,0,1.6084,1.6103,1.6264,1.6268,1.6272,1.6382,1.6362,1.6505,1.6408,1.6356,1.64,1.6397,1.6506,1.652,1.6556,1.6705,1.6712,1.6608,1.6614,1.6618,1.662,0,0,0,0,0,0,0,1.6075,1.6096,1.6309,1.6266,1.6271,1.6273,1.6289,1.6389,1.6447,1.636,1.6361,1.6379,1.6508,1.6547,1.656,1.6715,1.6608,1.6616,1.6622,1.6625,1.6973,1.6976,0,0,0,0,0,0,1.606,1.6088,1.6304,1.6313,1.6168,1.628,1.6299,1.635,1.6446,1.6457,1.6382,1.6378,1.6533,1.6549,1.6566,1.6714,1.6618,1.6626,1.6632,1.6969,1.6974,1.6978,0,0,0,0,0,0,1.6054,1.6079,1.6298,1.6201,1.6229,1.6289,1.6346,1.6354,1.6393,1.6461,1.6472,1.641,1.6531,1.6553,1.6665,1.672,1.6631,1.6639,1.6965,1.6971,1.6976,1.701,0,0,0,0,0,0,1.6045,1.6077,1.6122,1.6202,1.6234,1.6393,1.6349,1.636,1.6409,1.6407,1.6492,1.6503,1.653,1.6651,1.6675,1.6731,1.6647,1.6961,1.6968,1.6974,1.7005,1.7016,1.7026,0,0,0,0,0,1.6035,1.6126,1.6124,1.615,1.6291,1.6396,1.6415,1.6443,1.6413,1.646,1.6504,1.65,1.6709,1.6663,1.6689,1.6749,1.6957,1.6966,1.6973,1.7,1.7014,1.7026,0,0,0,0,0,0,1.6051,1.6136,1.6136,1.6255,1.6318,1.6396,1.6455,1.6457,1.6531,1.6526,1.6559,1.6578,1.6691,1.6731,1.6678,1.6871,1.683,1.6844,1.6841,1.6855,1.6866,1.6855,1.6654,0,0,0,0,0,1.6068,1.6145,1.6216,1.6314,1.6346,1.6395,1.6442,1.6458,1.6526,1.6553,1.6605,1.6672,1.6753,1.6806,1.6884,1.701,1.703,1.7064,1.7075,1.7084,1.7096,1.7168,1.7185,1.7004,1.7004,1.7004,0,0,1.6105,1.6161,1.6208,1.6319,1.637,1.6451,1.6418,1.6504,1.6565,1.6566,1.6676,1.6717,1.6794,1.6914,1.697,1.6951,1.715,1.7094,1.71,1.7108,1.7178,1.7195,1.721,1.701,1.7009,1.7008,0,0,1.6214,1.6263,1.6352,1.6403,1.6481,1.6513,1.6534,1.6612,1.6639,1.6749,1.6753,1.6826,1.6965,1.702,1.7067,1.7198,1.7198,1.7222,1.728,1.7349,1.7364,1.7377,1.7426,1.7443,1.7234,1.7234,1.7234,0,1.6251,1.6371,1.6397,1.6484,1.6534,1.6538,1.663,1.6679,1.6778,1.6814,1.6791,1.6966,1.7018,1.7152,1.7184,1.7221,1.7248,1.7214,1.7359,1.7372,1.7385,1.7432,1.7451,1.7237,1.7236,1.7236,1.7236,0,1.6413,1.6497,1.6559,1.6654,1.6711,1.68,1.6841,1.6896,1.6908,1.6943,1.7057,1.7119,1.7211,1.7244,1.7256,1.7382,1.7368,1.7352,1.7311,1.7404,1.745,1.7468,1.724,1.7239,1.7239,1.7238,0,0,1.6538,1.6647,1.6669,1.6714,1.6799,1.6865,1.6955,1.7044,1.7091,1.716,1.7238,1.7355,1.7341,1.7394,1.7413,1.7474,1.7577,1.7451,1.7453,1.7474,1.7722,1.7735,1.7755,1.7577,1.758,1.7583,1.7716,0,1.6658,1.6816,1.6843,1.6982,1.7061,1.7066,1.7145,1.7207,1.7243,1.7316,1.7356,1.744,1.7413,1.7446,1.7506,1.7551,1.7628,1.7542,1.7652,1.7656,1.7635,1.7779,1.7793,1.7916,1.7734,1.7737,1.7739,0,1.6819,1.6891,1.7038,1.7115,1.7149,1.7219,1.7304,1.7373,1.7445,1.7466,1.7525,1.7538,1.7633,1.7587,1.7721,1.7662,1.7709,1.7738,1.7744,1.7757,1.7704,1.7799,1.7955,1.7974,1.7767,1.7764,1.7762,0,1.6898,1.7032,1.7138,1.7175,1.7267,1.7316,1.7357,1.7425,1.7478,1.7552,1.7587,1.7672,1.7719,1.7786,1.7821,1.7784,1.7954,1.791,1.7977,1.7977,1.8014,1.8012,1.8183,1.804,1.804,1.804,1.8039,0,1.7031,1.7121,1.7175,1.724,1.7342,1.7373,1.7474,1.7514,1.7575,1.765,1.7659,1.773,1.7771,1.7848,1.7877,1.7985,1.8006,1.8028,1.8035,1.8029,1.8026,1.8061,1.8055,1.8045,1.8043,1.8042,1.8042,0,1.7138,1.7177,1.7293,1.737,1.7391,1.7464,1.7531,1.7596,1.763,1.7725,1.7749,1.7805,1.7897,1.7938,1.8051,1.8071,1.8195,1.8195,1.8171,1.8174,1.8239,1.8234,1.8441,1.8471,1.8306,1.8307,1.8309,0,1.7221,1.729,1.7375,1.7425,1.7467,1.7547,1.7601,1.7634,1.769,1.7777,1.7833,1.7924,1.7999,1.8145,1.8197,1.8285,1.8288,1.8355,1.8302,1.8294,1.8293,1.8289,1.8298,1.8365,1.8367,1.8368,1.8369,0,1.7365,1.7381,1.7457,1.7541,1.7604,1.7671,1.7738,1.7779,1.7823,1.7885,1.7978,1.8036,1.8152,1.8243,1.8334,1.8378,1.8383,1.8385,1.8406,1.8402,1.8386,1.8398,1.82,1.8381,1.838,1.8379,1.8378,1.8378,1.7465,1.7528,1.7597,1.7682,1.7735,1.7797,1.7862,1.7905,1.7983,1.8079,1.8094,1.8194,1.8266,1.8388,1.8436,1.8516,1.85,1.8529,1.8537,1.8545,1.855,1.8371,1.8532,1.8532,1.8532,1.8531,1.8531,0,1.7612,1.7657,1.7735,1.7827,1.7894,1.789,1.7963,1.8021,1.8108,1.8174,1.8247,1.8356,1.8445,1.8504,1.8595,1.8648,1.8653,1.8671,1.8669,1.868,1.8557,1.8532,1.8666,1.8666,1.8666,1.8666,1.8666,1.8666,1.7697,1.7804,1.7828,1.7963,1.8008,1.8104,1.8147,1.8205,1.8258,1.8378,1.8452,1.8489,1.8554,1.8649,1.8732,1.8747,1.8782,1.8801,1.8817,1.8702,1.8688,1.8675,1.8651,1.8808,1.8808,1.8933,1.8934,1.8934]},{"header":{"parameterUnit":"m.s-1","parameterCategory":1,"la1":30.2991,"la2":30.254,"lo1":-89.0895,"lo2":-89.0444,"dy":0.0017,"dx":0.0017,"nx":28,"ny":28,"refTime":"2024-06-26T03:00:00:Z","depth":0,"parameterNumber":3,"parameterNumberName":"V-component_of_WINDS"},"data":[0,0,0,0,0,0,0,0,0,0,0,0,0,0,0,0,0,0,0,0,0,0,0,0,0,0,0,0,0,0,0,0,0,0,0,0,0,0,0,0,0,0,0,0,0,0,0,0,0,0,0,0,0,0,0,0,0,0,-0.4209,-0.4208,0,-0.4199,-0.4199,-0.4198,-0.4292,-0.4294,-0.4297,-0.4299,-0.4283,-0.428,-0.4277,0,0,0,0,0,0,0,0,0,0,0,0,0,-0.4302,-0.43,-0.4209,-0.4208,-0.4208,-0.4199,-0.4199,-0.4198,-0.4291,-0.4294,-0.4298,-0.43,-0.4284,-0.428,-0.4277,0,0,0,0,0,0,0,0,0,0,0,0,0,-0.4273,-0.4299,-0.4209,-0.4254,-0.4258,-0.4199,-0.4198,-0.4198,-0.4291,-0.4294,-0.4298,-0.4302,-0.4285,-0.4281,-0.4276,-0.4172,0,0,-0.4263,-0.4261,0,0,0,0,0,0,0,0,-0.4275,-0.427,-0.4247,-0.425,-0.4255,-0.4251,-0.4226,-0.4189,-0.429,-0.4278,-0.4299,-0.4304,-0.4268,-0.4266,-0.4255,-0.4171,-0.417,-0.4263,-0.426,-0.4258,-0.4257,0,0,0,0,0,0,0,-0.4277,-0.4271,-0.4205,-0.4247,-0.4251,-0.4272,-0.4273,-0.4219,-0.4251,-0.4279,-0.4286,-0.4284,-0.4271,-0.4259,-0.4255,-0.417,-0.4263,-0.4259,-0.4256,-0.4255,-0.3997,-0.3993,0,0,0,0,0,0,-0.4274,-0.4272,-0.4205,-0.4204,-0.4275,-0.4268,-0.4268,-0.4248,-0.4252,-0.4257,-0.428,-0.4288,-0.4264,-0.426,-0.4255,-0.413,-0.4258,-0.4254,-0.4252,-0.4001,-0.3996,-0.3991,0,0,0,0,0,0,-0.4275,-0.4267,-0.4205,-0.424,-0.4234,-0.4262,-0.4239,-0.4246,-0.4233,-0.4253,-0.4259,-0.4262,-0.4267,-0.4261,-0.4192,-0.4131,-0.4252,-0.4248,-0.4006,-0.4,-0.3994,-0.3881,0,0,0,0,0,0,-0.4278,-0.4267,-0.4229,-0.4238,-0.4232,-0.4143,-0.4235,-0.4243,-0.4227,-0.4236,-0.4238,-0.4241,-0.427,-0.4198,-0.4187,-0.4127,-0.4245,-0.4012,-0.4003,-0.3996,-0.389,-0.3871,-0.3855,0,0,0,0,0,-0.4281,-0.4196,-0.4226,-0.4217,-0.4185,-0.414,-0.4135,-0.4172,-0.4221,-0.4182,-0.4195,-0.4241,-0.4141,-0.419,-0.4179,-0.4116,-0.4016,-0.4006,-0.3996,-0.3898,-0.3875,-0.3856,0,0,0,0,0,0,-0.4176,-0.4198,-0.4232,-0.4149,-0.4142,-0.4155,-0.4107,-0.4147,-0.4124,-0.4134,-0.4178,-0.4178,-0.41,-0.4102,-0.4157,-0.4015,-0.4086,-0.4074,-0.4015,-0.3993,-0.3977,-0.3975,-0.4242,0,0,0,0,0,-0.4144,-0.4107,-0.4128,-0.4053,-0.4048,-0.4078,-0.4059,-0.4088,-0.4082,-0.4079,-0.4087,-0.4077,-0.4043,-0.4019,-0.3989,-0.3893,-0.3892,-0.3844,-0.3827,-0.3813,-0.38,-0.3746,-0.3724,-0.396,-0.396,-0.396,0,0,-0.4075,-0.4083,-0.4057,-0.4032,-0.403,-0.3988,-0.4074,-0.4028,-0.3996,-0.4071,-0.4005,-0.4011,-0.4003,-0.3919,-0.3882,-0.3918,-0.3736,-0.3801,-0.3789,-0.3784,-0.3734,-0.3711,-0.3691,-0.3953,-0.3955,-0.3956,0,0,-0.3929,-0.3934,-0.387,-0.3866,-0.3863,-0.3884,-0.3869,-0.3877,-0.3883,-0.3819,-0.3874,-0.3837,-0.3779,-0.377,-0.3758,-0.3609,-0.365,-0.3599,-0.3506,-0.3453,-0.3434,-0.3418,-0.336,-0.334,-0.3587,-0.3587,-0.3587,0,-0.3844,-0.3786,-0.3831,-0.378,-0.3766,-0.3835,-0.3769,-0.3763,-0.3749,-0.3737,-0.3779,-0.3706,-0.3706,-0.3619,-0.3583,-0.3572,-0.3553,-0.3596,-0.3434,-0.3418,-0.3403,-0.3349,-0.3328,-0.358,-0.3581,-0.3582,-0.3582,0,-0.3679,-0.3638,-0.3587,-0.3573,-0.3554,-0.3496,-0.353,-0.3505,-0.3536,-0.3551,-0.3484,-0.3487,-0.3457,-0.344,-0.3469,-0.3356,-0.3378,-0.3427,-0.3499,-0.3373,-0.3322,-0.3303,-0.3571,-0.3573,-0.3575,-0.3577,0,0,-0.3463,-0.3477,-0.3457,-0.345,-0.3453,-0.3421,-0.3365,-0.3339,-0.3314,-0.3303,-0.3255,-0.3205,-0.3249,-0.3235,-0.3265,-0.3218,-0.3096,-0.3272,-0.3272,-0.3235,-0.2967,-0.2927,-0.2902,-0.3126,-0.3122,-0.3119,-0.2966,0,-0.3317,-0.3224,-0.3263,-0.3165,-0.3126,-0.3192,-0.3143,-0.3138,-0.3151,-0.3118,-0.3133,-0.3095,-0.3159,-0.315,-0.3108,-0.312,-0.3042,-0.3132,-0.3077,-0.3074,-0.3071,-0.2877,-0.2835,-0.269,-0.2947,-0.2944,-0.2942,0,-0.3134,-0.3116,-0.3014,-0.3023,-0.3008,-0.2963,-0.2941,-0.291,-0.2905,-0.2918,-0.2903,-0.2943,-0.2886,-0.2962,-0.2883,-0.2943,-0.2924,-0.2926,-0.2922,-0.2913,-0.2996,-0.2859,-0.2646,-0.2621,-0.2912,-0.2914,-0.2917,0,-0.298,-0.2932,-0.2864,-0.2858,-0.2867,-0.2833,-0.2835,-0.2834,-0.2815,-0.2796,-0.2783,-0.2757,-0.2741,-0.2719,-0.275,-0.2803,-0.2665,-0.2744,-0.267,-0.2669,-0.2634,-0.2634,-0.2409,-0.2629,-0.263,-0.263,-0.2631,0,-0.2811,-0.2744,-0.2795,-0.2753,-0.268,-0.2726,-0.2652,-0.2661,-0.266,-0.2619,-0.2676,-0.2635,-0.2681,-0.2644,-0.2668,-0.2596,-0.259,-0.2596,-0.2602,-0.2588,-0.2586,-0.2571,-0.258,-0.2625,-0.2626,-0.2627,-0.2628,0,-0.2625,-0.2657,-0.2587,-0.2602,-0.2604,-0.2549,-0.2561,-0.2521,-0.254,-0.2487,-0.2477,-0.2505,-0.2465,-0.2495,-0.2455,-0.2471,-0.2375,-0.2398,-0.2376,-0.2381,-0.2303,-0.2308,-0.2056,-0.2023,-0.2269,-0.2267,-0.2265,0,-0.2512,-0.2463,-0.2473,-0.245,-0.2449,-0.2412,-0.2393,-0.2437,-0.2415,-0.2405,-0.2365,-0.2331,-0.2304,-0.2236,-0.2252,-0.2221,-0.224,-0.2154,-0.2235,-0.2222,-0.2233,-0.2233,-0.2226,-0.2135,-0.2133,-0.213,-0.2128,0,-0.2306,-0.2325,-0.2297,-0.2273,-0.225,-0.2234,-0.2221,-0.2199,-0.2244,-0.2215,-0.2176,-0.2156,-0.2115,-0.2078,-0.2053,-0.2053,-0.2095,-0.2104,-0.2084,-0.2066,-0.2053,-0.2054,-0.2326,-0.2108,-0.211,-0.2111,-0.2112,-0.2113,-0.215,-0.2108,-0.2109,-0.2075,-0.2071,-0.2059,-0.2021,-0.2036,-0.2004,-0.1976,-0.2004,-0.1955,-0.195,-0.1921,-0.1915,-0.1876,-0.1911,-0.1883,-0.1876,-0.1867,-0.1853,-0.2065,-0.1872,-0.1873,-0.1873,-0.1874,-0.1874,0,-0.1943,-0.1947,-0.1916,-0.1898,-0.1871,-0.1919,-0.1908,-0.188,-0.1837,-0.183,-0.1804,-0.1757,-0.1721,-0.1735,-0.1703,-0.1669,-0.1687,-0.1658,-0.1658,-0.1656,-0.1826,-0.1844,-0.1643,-0.1643,-0.1643,-0.1643,-0.1643,-0.1644,-0.1832,-0.1763,-0.1781,-0.171,-0.1715,-0.1668,-0.1657,-0.1645,-0.1639,-0.1585,-0.1556,-0.1567,-0.1567,-0.1535,-0.1504,-0.1509,-0.1492,-0.1454,-0.1465,-0.1623,-0.1645,-0.1667,-0.1683,-0.1452,-0.1452,-0.1298,-0.1297,-0.1296]}]]